FDX8 LFPG-VABB

Flight info

Callsign FDX8
Flight time 8h 40m
Altitude 31000
Route BUBLI DCT LUVAL DCT MIRGU DCT BEGAR DCT TRA DCT GAMSA DCT GEDSO DCT VEKEN DCT GORPA DCT TIVNU DCT VEBAR DCT NISVA DCT UDROS/N0489F330 DCT CRM DCT ROLIN DCT TETRO DCT BARAD M747 SUBUT T923 ERLEV M11 RODAR A909 TUNEK B143 KRS A240 INRAK B449 DOLOS B475 NINOP B801 RANAH L750 BIROS/N0490F350 L750 ZB G202 RK P628 VIKIT Z8 AAE/N0499F340 R458 BVR/N0495F350 R458 BOFIN POKON2A
Aircraft B77L/H-SDE1E2E3FGHIJ2J3J4J5M1RWXY/LB1D1

Departure

Time 2026-05-04 09:18
Airport Charles de Gaulle International Airport (LFPG)

Arrival

Time 2026-05-04 17:58
Airport Chhatrapati Shivaji Maharaj International Airport (VABB)
Time Latitude Longitude Altitude Speed Heading
2026-05-04 08:50 49.01316 2.49957 357 ft 0 kts 175°
2026-05-04 09:07 49.01401 2.49886 365 ft 3 kts 84°
2026-05-04 09:08 49.01401 2.49879 365 ft 0 kts 85°
2026-05-04 09:10 49.01402 2.49901 358 ft 5 kts 86°
2026-05-04 09:10 49.01404 2.49958 358 ft 5 kts 85°
2026-05-04 09:10 49.01408 2.50030 358 ft 10 kts 85°
2026-05-04 09:10 49.01414 2.50141 365 ft 11 kts 85°
2026-05-04 09:11 49.01420 2.50252 361 ft 11 kts 85°
2026-05-04 09:11 49.01426 2.50362 364 ft 11 kts 85°
2026-05-04 09:11 49.01432 2.50473 363 ft 10 kts 85°
2026-05-04 09:11 49.01438 2.50584 359 ft 10 kts 85°
2026-05-04 09:12 49.01444 2.50695 364 ft 10 kts 85°
2026-05-04 09:12 49.01450 2.50806 362 ft 11 kts 85°
2026-05-04 09:14 49.01688 2.51278 364 ft 8 kts 355°
2026-05-04 09:14 49.01744 2.51272 361 ft 8 kts 356°
2026-05-04 09:14 49.01800 2.51265 359 ft 8 kts 356°
2026-05-04 09:14 49.01856 2.51259 366 ft 8 kts 356°
2026-05-04 09:15 49.01912 2.51253 361 ft 8 kts 355°
2026-05-04 09:15 49.01968 2.51257 364 ft 8 kts 15°
2026-05-04 09:15 49.02018 2.51321 367 ft 11 kts 45°
2026-05-04 09:15 49.02065 2.51407 365 ft 11 kts 65°
2026-05-04 09:17 49.02356 2.56640 759 ft 195 kts 85°
2026-05-04 09:18 49.02470 2.58708 1406 ft 198 kts 86°
2026-05-04 09:18 49.02580 2.60856 1921 ft 205 kts 86°
2026-05-04 09:18 49.02690 2.63022 2377 ft 213 kts 86°
2026-05-04 09:18 49.02821 2.65378 2583 ft 229 kts 86°
2026-05-04 09:19 49.02949 2.67828 2898 ft 244 kts 86°
2026-05-04 09:19 49.03087 2.70472 3305 ft 254 kts 86°
2026-05-04 09:19 49.03223 2.73178 3878 ft 259 kts 86°
2026-05-04 09:19 49.03355 2.75945 4509 ft 262 kts 86°
2026-05-04 09:20 49.03486 2.78721 5230 ft 264 kts 86°
2026-05-04 09:20 49.03622 2.81544 5873 ft 269 kts 86°
2026-05-04 09:20 49.03759 2.84397 6537 ft 270 kts 86°
2026-05-04 09:20 49.03896 2.87269 7166 ft 272 kts 86°
2026-05-04 09:21 49.04033 2.90155 7776 ft 274 kts 86°
2026-05-04 09:21 49.04167 2.93065 8372 ft 276 kts 88°
2026-05-04 09:21 49.03854 2.95941 8758 ft 280 kts 116°
2026-05-04 09:21 49.02890 2.98519 9249 ft 283 kts 120°
2026-05-04 09:22 49.01896 3.01076 9859 ft 284 kts 120°
2026-05-04 09:22 49.00887 3.03681 10370 ft 289 kts 120°
2026-05-04 09:22 48.99833 3.06407 10524 ft 308 kts 120°
2026-05-04 09:22 48.98715 3.09306 10732 ft 326 kts 120°
2026-05-04 09:23 48.97530 3.12382 10876 ft 347 kts 120°
2026-05-04 09:23 48.96279 3.15637 11107 ft 363 kts 120°
2026-05-04 09:23 48.94991 3.18988 11641 ft 371 kts 120°
2026-05-04 09:23 48.93676 3.22414 12257 ft 377 kts 121°
2026-05-04 09:25 48.84094 3.47260 16804 ft 401 kts 122°
2026-05-04 09:25 48.82672 3.50926 17399 ft 405 kts 122°
2026-05-04 09:26 48.81339 3.54682 17892 ft 409 kts 113°
2026-05-04 09:26 48.80741 3.58927 18274 ft 415 kts 96°
2026-05-04 09:26 48.80553 3.63277 18651 ft 421 kts 96°
2026-05-04 09:26 48.80316 3.67729 19181 ft 423 kts 97°
2026-05-04 09:27 48.80049 3.72183 19736 ft 425 kts 98°
2026-05-04 09:27 48.79765 3.76653 20238 ft 427 kts 98°
2026-05-04 09:27 48.79469 3.81168 20733 ft 431 kts 98°
2026-05-04 09:27 48.79169 3.85704 21228 ft 434 kts 99°
2026-05-04 09:28 48.78865 3.90274 21735 ft 437 kts 99°
2026-05-04 09:28 48.78557 3.94885 22237 ft 440 kts 99°
2026-05-04 09:28 48.78248 3.99514 22736 ft 443 kts 99°
2026-05-04 09:28 48.77935 4.04186 23228 ft 446 kts 99°
2026-05-04 09:29 48.77621 4.08825 23660 ft 449 kts 99°
2026-05-04 09:29 48.77211 4.13537 24009 ft 447 kts 108°
2026-05-04 09:29 48.76052 4.17863 24240 ft 442 kts 127°
2026-05-04 09:29 48.74232 4.21567 24526 ft 439 kts 131°
2026-05-04 09:30 48.72389 4.25294 24878 ft 443 kts 130°
2026-05-04 09:30 48.70572 4.29088 25305 ft 445 kts 129°
2026-05-04 09:30 48.68766 4.32914 25738 ft 447 kts 129°
2026-05-04 09:30 48.66974 4.36729 26110 ft 450 kts 129°
2026-05-04 09:31 48.65156 4.40600 26462 ft 453 kts 129°
2026-05-04 09:31 48.63321 4.44498 26820 ft 456 kts 129°
2026-05-04 09:31 48.61466 4.48430 27182 ft 459 kts 130°
2026-05-04 09:31 48.59626 4.52321 27553 ft 461 kts 130°
2026-05-04 09:32 48.57753 4.56273 27909 ft 464 kts 130°
2026-05-04 09:32 48.55865 4.60249 28245 ft 466 kts 130°
2026-05-04 09:34 48.42409 4.88428 30543 ft 476 kts 130°
2026-05-04 09:34 48.40473 4.92462 30911 ft 475 kts 130°
2026-05-04 09:34 48.36564 5.00579 31000 ft 478 kts 130°
2026-05-04 09:35 48.32663 5.08666 31004 ft 475 kts 130°
2026-05-04 09:35 48.29417 5.17304 31016 ft 482 kts 118°
2026-05-04 09:37 48.22188 5.56607 31032 ft 492 kts 109°
2026-05-04 09:38 48.20425 5.66546 31029 ft 493 kts 109°
2026-05-04 09:38 48.18646 5.76514 31019 ft 494 kts 109°
2026-05-04 09:39 48.16872 5.86406 31025 ft 494 kts 109°
2026-05-04 09:39 48.15074 5.96385 31026 ft 495 kts 109°
2026-05-04 09:40 48.13284 6.06268 31024 ft 495 kts 110°
2026-05-04 09:40 48.11470 6.16226 31035 ft 496 kts 110°
2026-05-04 09:42 48.04122 6.56025 31038 ft 496 kts 110°
2026-05-04 09:43 48.02276 6.65898 31043 ft 496 kts 110°
2026-05-04 09:43 48.00852 6.76037 31036 ft 500 kts 104°
2026-05-04 09:44 47.99672 6.86268 31035 ft 500 kts 104°
2026-05-04 09:46 47.94709 7.27127 31020 ft 502 kts 104°
2026-05-04 09:46 47.93435 7.37363 31024 ft 502 kts 104°
2026-05-04 09:47 47.92151 7.47610 31017 ft 503 kts 104°
2026-05-04 09:49 47.84820 7.82040 31035 ft 499 kts 115°
2026-05-04 09:49 47.83601 7.86811 31029 ft 500 kts 114°
2026-05-04 09:51 47.75857 8.17163 31032 ft 502 kts 115°
2026-05-04 09:51 47.73372 8.26811 31028 ft 503 kts 115°
2026-05-04 09:52 47.70867 8.36503 31030 ft 502 kts 115°
2026-05-04 09:52 47.68367 8.46187 31038 ft 502 kts 114°
2026-05-04 09:53 47.66109 8.56002 31038 ft 503 kts 111°
2026-05-04 09:53 47.63935 8.65874 31037 ft 503 kts 111°
2026-05-04 09:54 47.61735 8.75653 31034 ft 502 kts 112°
2026-05-04 09:54 47.59491 8.85446 31045 ft 502 kts 112°
2026-05-04 09:55 47.57231 8.95231 31041 ft 502 kts 112°
2026-05-04 09:55 47.54976 9.04960 31042 ft 501 kts 112°
2026-05-04 09:56 47.53087 9.13083 31029 ft 502 kts 112°
2026-05-04 09:56 47.50804 9.22849 31025 ft 502 kts 112°
2026-05-04 09:57 47.48142 9.34198 31017 ft 502 kts 112°
2026-05-04 09:57 47.46230 9.42312 31020 ft 503 kts 112°
2026-05-04 09:58 47.43917 9.52094 31014 ft 503 kts 112°
2026-05-04 09:58 47.41601 9.61836 31018 ft 503 kts 112°
2026-05-04 10:00 47.35637 10.02434 31039 ft 507 kts 104°
2026-05-04 10:04 47.25501 10.72900 31031 ft 505 kts 104°
2026-05-04 10:04 47.24013 10.82986 31039 ft 503 kts 104°
2026-05-04 10:05 47.22521 10.93037 31032 ft 502 kts 104°
2026-05-04 10:05 47.21019 11.03078 31028 ft 501 kts 104°
2026-05-04 10:06 47.19512 11.13099 31006 ft 502 kts 104°
2026-05-04 10:06 47.18001 11.23071 30989 ft 502 kts 104°
2026-05-04 10:08 47.12603 11.58229 31017 ft 504 kts 104°
2026-05-04 10:08 47.11042 11.68266 31033 ft 504 kts 104°
2026-05-04 10:09 47.09481 11.78242 31049 ft 503 kts 104°
2026-05-04 10:09 47.07630 11.88161 31082 ft 502 kts 111°
2026-05-04 10:10 47.04710 11.97426 31064 ft 499 kts 118°
2026-05-04 10:10 47.01607 12.06478 31102 ft 498 kts 118°
2026-05-04 10:11 46.98551 12.15490 31097 ft 497 kts 117°
2026-05-04 10:11 46.95485 12.24580 31113 ft 499 kts 117°
2026-05-04 10:12 46.92393 12.33733 31119 ft 503 kts 117°
2026-05-04 10:12 46.89274 12.42927 31134 ft 505 kts 117°
2026-05-04 10:13 46.86157 12.52080 31111 ft 506 kts 117°
2026-05-04 10:13 46.83012 12.61282 31116 ft 505 kts 117°
2026-05-04 10:14 46.79870 12.70450 31104 ft 504 kts 117°
2026-05-04 10:16 46.67297 13.06788 31085 ft 502 kts 117°
2026-05-04 10:16 46.64132 13.15861 31102 ft 502 kts 117°
2026-05-04 10:17 46.60958 13.24927 31093 ft 503 kts 117°
2026-05-04 10:19 46.47586 13.60649 31103 ft 505 kts 120°
2026-05-04 10:19 46.44107 13.69494 31110 ft 504 kts 120°
2026-05-04 10:20 46.40642 13.78339 31108 ft 505 kts 120°
2026-05-04 10:20 46.37167 13.87195 31106 ft 505 kts 120°
2026-05-04 10:21 46.33680 13.96046 31108 ft 506 kts 120°
2026-05-04 10:21 46.30182 14.04892 31123 ft 506 kts 120°
2026-05-04 10:22 46.24941 14.18095 31108 ft 506 kts 119°
2026-05-04 10:23 46.21434 14.26894 31096 ft 505 kts 120°
2026-05-04 10:25 46.07432 14.61743 31103 ft 502 kts 119°
2026-05-04 10:25 46.03911 14.70440 31106 ft 502 kts 119°
2026-05-04 10:26 46.00382 14.79128 31103 ft 503 kts 119°
2026-05-04 10:26 45.96868 14.87750 31102 ft 503 kts 119°
2026-05-04 10:27 45.93323 14.96425 31104 ft 503 kts 120°
2026-05-04 10:27 45.89772 15.05086 31106 ft 503 kts 120°
2026-05-04 10:28 45.86206 15.13751 31105 ft 503 kts 120°
2026-05-04 10:28 45.82641 15.22398 31099 ft 503 kts 120°
2026-05-04 10:29 45.79089 15.30982 31089 ft 503 kts 120°
2026-05-04 10:29 45.75471 15.39550 31108 ft 502 kts 122°
2026-05-04 10:30 45.71604 15.47896 31107 ft 502 kts 123°
2026-05-04 10:30 45.67689 15.56182 31107 ft 501 kts 123°
2026-05-04 10:31 45.63833 15.64424 31092 ft 501 kts 122°
2026-05-04 10:32 45.50340 15.93355 31111 ft 501 kts 122°
2026-05-04 10:33 45.46458 16.01615 31102 ft 501 kts 122°
2026-05-04 10:33 45.42577 16.09855 31132 ft 501 kts 122°
2026-05-04 10:34 45.38705 16.18051 31124 ft 501 kts 122°
2026-05-04 10:34 45.34798 16.26298 31118 ft 501 kts 122°
2026-05-04 10:35 45.30892 16.34516 31112 ft 502 kts 122°
2026-05-04 10:35 45.26984 16.42719 31111 ft 502 kts 122°
2026-05-04 10:36 45.23088 16.50869 31113 ft 502 kts 122°
2026-05-04 10:36 45.19164 16.59057 31113 ft 502 kts 122°
2026-05-04 10:37 45.15231 16.67239 31121 ft 502 kts 122°
2026-05-04 10:37 45.11289 16.75415 31117 ft 502 kts 122°
2026-05-04 10:39 44.97451 17.03948 31127 ft 502 kts 122°
2026-05-04 10:40 44.93964 17.12358 31123 ft 499 kts 115°
2026-05-04 10:40 44.90745 17.21028 31134 ft 499 kts 115°
2026-05-04 10:41 44.87503 17.29708 31143 ft 499 kts 115°
2026-05-04 10:41 44.84232 17.38355 31132 ft 500 kts 115°
2026-05-04 10:42 44.80955 17.46960 31140 ft 501 kts 115°
2026-05-04 10:42 44.77654 17.55594 31132 ft 501 kts 115°
2026-05-04 10:43 44.74342 17.64234 31133 ft 501 kts 115°
2026-05-04 10:45 44.61646 17.97131 31124 ft 500 kts 115°
2026-05-04 10:45 44.58322 18.05681 31134 ft 499 kts 115°
2026-05-04 10:46 44.54983 18.14240 31141 ft 499 kts 115°
2026-05-04 10:46 44.51646 18.22767 31136 ft 499 kts 115°
2026-05-04 10:47 44.48303 18.31289 31147 ft 498 kts 115°
2026-05-04 10:47 44.44979 18.39736 31143 ft 499 kts 115°
2026-05-04 10:49 44.31524 18.73664 31139 ft 497 kts 114°
2026-05-04 10:50 44.28156 18.82090 31148 ft 496 kts 114°
2026-05-04 10:52 44.14675 19.15589 31170 ft 494 kts 114°
2026-05-04 10:52 44.11748 19.24174 31168 ft 488 kts 107°
2026-05-04 10:54 44.01252 19.59146 31162 ft 490 kts 107°
2026-05-04 10:56 43.90625 19.93763 31163 ft 485 kts 107°
2026-05-04 10:57 43.87977 20.02319 31166 ft 483 kts 107°
2026-05-04 10:57 43.85321 20.10869 31183 ft 482 kts 107°
2026-05-04 10:58 43.82659 20.19424 31185 ft 483 kts 107°
2026-05-04 10:58 43.79987 20.27975 31187 ft 483 kts 107°
2026-05-04 10:59 43.77328 20.36455 31193 ft 483 kts 107°
2026-05-04 10:59 43.74648 20.44972 31200 ft 482 kts 107°
2026-05-04 11:00 43.71963 20.53482 31189 ft 482 kts 107°
2026-05-04 11:02 43.61196 20.87328 31477 ft 482 kts 106°
2026-05-04 11:02 43.59862 20.91490 31928 ft 478 kts 107°
2026-05-04 11:05 43.40982 21.49708 33176 ft 473 kts 106°
2026-05-04 11:06 43.38293 21.57915 33166 ft 475 kts 106°
2026-05-04 11:06 43.35561 21.66207 33160 ft 475 kts 106°
2026-05-04 11:10 43.16225 22.24203 33163 ft 479 kts 107°
2026-05-04 11:12 43.05039 22.57195 33154 ft 477 kts 108°
2026-05-04 11:12 43.02239 22.65396 33153 ft 475 kts 109°
2026-05-04 11:13 42.99457 22.73539 33140 ft 474 kts 107°
2026-05-04 11:13 42.97632 22.82040 33136 ft 461 kts 94°
2026-05-04 11:14 42.97230 22.90677 33166 ft 452 kts 84°
2026-05-04 11:16 42.97384 23.25227 33141 ft 458 kts 86°
2026-05-04 11:16 42.97380 23.33949 33136 ft 459 kts 86°
2026-05-04 11:17 42.97370 23.42684 33127 ft 459 kts 86°
2026-05-04 11:19 42.97266 23.77502 33131 ft 460 kts 87°
2026-05-04 11:19 42.97223 23.86234 33138 ft 460 kts 87°
2026-05-04 11:20 42.97174 23.95000 33139 ft 461 kts 88°
2026-05-04 11:20 42.97119 24.03708 33139 ft 461 kts 88°
2026-05-04 11:22 42.96827 24.38852 33131 ft 463 kts 89°
2026-05-04 11:23 42.96736 24.47648 33126 ft 463 kts 89°
2026-05-04 11:25 42.96369 24.78450 33109 ft 464 kts 90°
2026-05-04 11:25 42.96249 24.87270 33109 ft 465 kts 90°
2026-05-04 11:27 42.95623 25.26910 33099 ft 463 kts 90°
2026-05-04 11:28 42.95467 25.35656 33088 ft 463 kts 90°
2026-05-04 11:28 42.95302 25.44459 33092 ft 463 kts 91°
2026-05-04 11:29 42.95132 25.53256 33085 ft 463 kts 91°
2026-05-04 11:29 42.94956 25.61991 33091 ft 463 kts 91°
2026-05-04 11:31 42.94323 25.90978 33085 ft 452 kts 92°
2026-05-04 11:33 42.93589 26.21045 33067 ft 454 kts 92°
2026-05-04 11:33 42.93365 26.29639 33061 ft 452 kts 92°
2026-05-04 11:34 42.93136 26.38206 33057 ft 451 kts 92°
2026-05-04 11:34 42.92900 26.46746 33051 ft 449 kts 92°
2026-05-04 11:35 42.92659 26.55252 33061 ft 447 kts 92°
2026-05-04 11:35 42.92413 26.63678 33060 ft 446 kts 92°
2026-05-04 11:36 42.92162 26.72134 33054 ft 446 kts 92°
2026-05-04 11:36 42.91903 26.80591 33056 ft 446 kts 92°
2026-05-04 11:37 42.91639 26.89067 33050 ft 447 kts 92°
2026-05-04 11:37 42.91369 26.97504 33038 ft 448 kts 92°
2026-05-04 11:38 42.91090 27.06009 33051 ft 449 kts 92°
2026-05-04 11:38 42.90805 27.14528 33034 ft 449 kts 92°
2026-05-04 11:39 42.90513 27.23059 33029 ft 450 kts 92°
2026-05-04 11:41 42.89443 27.52835 33036 ft 449 kts 92°
2026-05-04 11:41 42.89122 27.61351 33029 ft 449 kts 92°
2026-05-04 11:42 42.88797 27.69857 33027 ft 449 kts 92°
2026-05-04 11:42 42.88464 27.78352 33035 ft 448 kts 92°
2026-05-04 11:43 42.88127 27.86834 33029 ft 448 kts 92°
2026-05-04 11:43 42.87783 27.95309 33039 ft 447 kts 92°
2026-05-04 11:44 42.87435 28.03729 33037 ft 447 kts 92°
2026-05-04 11:44 42.87079 28.12200 33037 ft 447 kts 92°
2026-05-04 11:45 42.86717 28.20658 33038 ft 447 kts 92°
2026-05-04 11:45 42.86349 28.29120 33037 ft 447 kts 91°
2026-05-04 11:46 42.85974 28.37579 33033 ft 447 kts 91°
2026-05-04 11:46 42.85593 28.46041 33032 ft 447 kts 91°
2026-05-04 11:47 42.85205 28.54532 33029 ft 448 kts 91°
2026-05-04 11:47 42.84811 28.63002 33026 ft 448 kts 91°
2026-05-04 11:48 42.84413 28.71429 33025 ft 448 kts 91°
2026-05-04 11:48 42.84006 28.79909 33025 ft 449 kts 91°
2026-05-04 11:49 42.83592 28.88396 33020 ft 449 kts 91°
2026-05-04 11:49 42.83172 28.96897 33016 ft 449 kts 91°
2026-05-04 11:50 42.82745 29.05396 33009 ft 449 kts 91°
2026-05-04 11:50 42.82312 29.13886 33008 ft 449 kts 91°
2026-05-04 11:51 42.81877 29.22314 33004 ft 449 kts 91°
2026-05-04 11:51 42.81432 29.30795 32999 ft 448 kts 91°
2026-05-04 11:52 42.80981 29.39271 32993 ft 448 kts 91°
2026-05-04 11:52 42.80525 29.47720 32991 ft 447 kts 91°
2026-05-04 11:53 42.80065 29.56125 32985 ft 446 kts 91°
2026-05-04 11:53 42.79598 29.64560 32980 ft 446 kts 91°
2026-05-04 11:55 42.77677 29.98114 32966 ft 446 kts 92°
2026-05-04 11:56 42.77179 30.06537 32965 ft 446 kts 92°
2026-05-04 11:56 42.76674 30.14965 32957 ft 447 kts 92°
2026-05-04 11:57 42.76164 30.23388 32954 ft 447 kts 92°
2026-05-04 11:57 42.75647 30.31819 32938 ft 447 kts 92°
2026-05-04 11:58 42.75124 30.40239 32943 ft 446 kts 92°
2026-05-04 11:58 42.74600 30.48588 32940 ft 445 kts 92°
2026-05-04 11:59 42.74067 30.56986 32932 ft 445 kts 92°
2026-05-04 11:59 42.73576 30.65372 32926 ft 444 kts 91°
2026-05-04 12:00 42.73093 30.73762 32917 ft 445 kts 95°
2026-05-04 12:00 42.71642 30.81993 32916 ft 450 kts 103°
2026-05-04 12:01 42.69794 30.90051 32917 ft 450 kts 103°
2026-05-04 12:02 42.63362 31.18508 32895 ft 450 kts 103°
2026-05-04 12:03 42.61515 31.26642 32885 ft 450 kts 103°
2026-05-04 12:03 42.59667 31.34751 32876 ft 449 kts 103°
2026-05-04 12:04 42.57814 31.42851 32871 ft 449 kts 103°
2026-05-04 12:04 42.55966 31.50897 32867 ft 449 kts 103°
2026-05-04 12:05 42.54103 31.58986 32860 ft 448 kts 103°
2026-05-04 12:05 42.52246 31.67013 32852 ft 449 kts 103°
2026-05-04 12:06 42.50372 31.75089 32857 ft 450 kts 103°
2026-05-04 12:06 42.48482 31.83200 32849 ft 450 kts 103°
2026-05-04 12:07 42.46590 31.91293 32848 ft 451 kts 103°
2026-05-04 12:07 42.44692 31.99384 32847 ft 451 kts 103°
2026-05-04 12:08 42.42795 32.07436 32838 ft 451 kts 103°
2026-05-04 12:08 42.40882 32.15530 32855 ft 452 kts 103°
2026-05-04 12:09 42.38958 32.23643 32844 ft 453 kts 103°
2026-05-04 12:09 42.37025 32.31764 32836 ft 453 kts 103°
2026-05-04 12:10 42.35085 32.39884 32837 ft 454 kts 103°
2026-05-04 12:10 42.33138 32.48007 32837 ft 454 kts 103°
2026-05-04 12:11 42.31184 32.56126 32847 ft 454 kts 104°
2026-05-04 12:11 42.29235 32.64199 32841 ft 455 kts 104°
2026-05-04 12:12 42.27263 32.72337 32850 ft 455 kts 104°
2026-05-04 12:12 42.25285 32.80468 32847 ft 455 kts 104°
2026-05-04 12:14 42.17357 33.12785 32847 ft 453 kts 104°
2026-05-04 12:15 42.15376 33.20792 32841 ft 453 kts 104°
2026-05-04 12:15 42.13374 33.28853 32844 ft 452 kts 104°
2026-05-04 12:16 42.11711 33.35533 32841 ft 452 kts 105°
2026-05-04 12:16 42.09703 33.43569 32841 ft 452 kts 105°
2026-05-04 12:17 42.07688 33.51606 32838 ft 453 kts 105°
2026-05-04 12:17 42.05667 33.59638 32845 ft 453 kts 105°
2026-05-04 12:18 42.03639 33.67674 32833 ft 453 kts 105°
2026-05-04 12:18 42.01618 33.75653 32828 ft 454 kts 105°
2026-05-04 12:19 41.99574 33.83694 32828 ft 454 kts 106°
2026-05-04 12:19 41.97525 33.91730 32829 ft 455 kts 106°
2026-05-04 12:20 41.95464 33.99783 32833 ft 455 kts 106°
2026-05-04 12:20 41.93397 34.07833 32831 ft 456 kts 106°
2026-05-04 12:21 41.91323 34.15882 32823 ft 456 kts 107°
2026-05-04 12:21 41.89258 34.23875 32815 ft 455 kts 107°
2026-05-04 12:22 41.87177 34.31898 32819 ft 454 kts 107°
2026-05-04 12:22 41.85095 34.39902 32821 ft 453 kts 107°
2026-05-04 12:23 41.83011 34.47885 32831 ft 453 kts 107°
2026-05-04 12:23 41.80939 34.55797 32831 ft 453 kts 107°
2026-05-04 12:24 41.78843 34.63775 32828 ft 453 kts 107°
2026-05-04 12:24 41.76740 34.71752 32822 ft 454 kts 108°
2026-05-04 12:25 41.74629 34.79733 32818 ft 454 kts 108°
2026-05-04 12:25 41.72523 34.87668 32811 ft 456 kts 108°
2026-05-04 12:26 41.70390 34.95683 32818 ft 458 kts 108°
2026-05-04 12:26 41.68240 35.03730 32823 ft 460 kts 108°
2026-05-04 12:27 41.66076 35.11807 32818 ft 462 kts 108°
2026-05-04 12:27 41.63913 35.19850 32823 ft 463 kts 108°
2026-05-04 12:28 41.61716 35.27995 32815 ft 465 kts 109°
2026-05-04 12:28 41.59514 35.36130 32832 ft 466 kts 109°
2026-05-04 12:29 41.57314 35.44233 32827 ft 467 kts 109°
2026-05-04 12:29 41.55093 35.52382 32820 ft 467 kts 109°
2026-05-04 12:30 41.52869 35.60521 32839 ft 467 kts 109°
2026-05-04 12:30 41.50634 35.68675 32828 ft 467 kts 109°
2026-05-04 12:31 41.48392 35.76825 32828 ft 468 kts 109°
2026-05-04 12:31 41.46157 35.84922 32827 ft 468 kts 110°
2026-05-04 12:32 41.42763 35.97169 32821 ft 469 kts 110°
2026-05-04 12:33 41.40490 36.05340 32814 ft 470 kts 110°
2026-05-04 12:33 41.38207 36.13518 32813 ft 471 kts 110°
2026-05-04 12:34 41.35919 36.21688 32814 ft 471 kts 110°
2026-05-04 12:34 41.33621 36.29872 32817 ft 472 kts 110°
2026-05-04 12:35 41.31331 36.38000 32823 ft 473 kts 111°
2026-05-04 12:35 41.29018 36.46185 32828 ft 473 kts 111°
2026-05-04 12:36 41.27399 36.54638 32827 ft 474 kts 96°
2026-05-04 12:36 41.27655 36.63400 32822 ft 477 kts 81°
2026-05-04 12:37 41.28971 36.72059 32824 ft 478 kts 79°
2026-05-04 12:37 41.30325 36.80741 32819 ft 479 kts 80°
2026-05-04 12:38 41.31624 36.89390 32812 ft 481 kts 81°
2026-05-04 12:38 41.32898 36.98131 32802 ft 481 kts 81°
2026-05-04 12:39 41.34159 37.06879 32806 ft 481 kts 81°
2026-05-04 12:39 41.35414 37.15633 32806 ft 481 kts 81°
2026-05-04 12:40 41.36657 37.24342 32807 ft 480 kts 81°
2026-05-04 12:40 41.37898 37.33080 32813 ft 479 kts 81°
2026-05-04 12:41 41.39132 37.41819 32818 ft 479 kts 81°
2026-05-04 12:41 41.40354 37.50525 32821 ft 478 kts 81°
2026-05-04 12:42 41.41571 37.59239 32824 ft 478 kts 81°
2026-05-04 12:42 41.42772 37.67893 32828 ft 478 kts 81°
2026-05-04 12:43 41.43978 37.76632 32828 ft 478 kts 82°
2026-05-04 12:43 41.45175 37.85359 32832 ft 478 kts 82°
2026-05-04 12:44 41.46360 37.94054 32829 ft 479 kts 82°
2026-05-04 12:44 41.47546 38.02799 32830 ft 479 kts 82°
2026-05-04 12:45 41.48725 38.11547 32832 ft 479 kts 82°
2026-05-04 12:45 41.49897 38.20303 32832 ft 480 kts 82°
2026-05-04 12:46 41.51064 38.29068 32833 ft 480 kts 82°
2026-05-04 12:46 41.52225 38.37840 32829 ft 480 kts 82°
2026-05-04 12:47 41.53376 38.46592 32822 ft 480 kts 82°
2026-05-04 12:47 41.54525 38.55381 32820 ft 480 kts 83°
2026-05-04 12:48 41.55660 38.64112 32817 ft 480 kts 83°
2026-05-04 12:48 41.56793 38.72893 32826 ft 480 kts 83°
2026-05-04 12:49 41.57920 38.81671 32816 ft 479 kts 83°
2026-05-04 12:49 41.59039 38.90453 32824 ft 479 kts 83°
2026-05-04 12:50 41.60151 38.99229 32815 ft 479 kts 83°
2026-05-04 12:50 41.61258 39.08019 32823 ft 479 kts 83°
2026-05-04 12:51 41.62357 39.16806 32826 ft 479 kts 83°
2026-05-04 12:51 41.63449 39.25593 32827 ft 479 kts 84°
2026-05-04 12:52 41.64535 39.34386 32826 ft 479 kts 84°
2026-05-04 12:52 41.65608 39.43137 32831 ft 479 kts 84°
2026-05-04 12:53 41.66682 39.51947 32829 ft 479 kts 84°
2026-05-04 12:53 41.67748 39.60751 32832 ft 480 kts 84°
2026-05-04 12:54 41.68804 39.69536 32839 ft 480 kts 84°
2026-05-04 12:54 41.69858 39.78355 32840 ft 480 kts 84°
2026-05-04 12:55 41.70908 39.87200 32832 ft 481 kts 85°
2026-05-04 12:55 41.71952 39.96065 32834 ft 481 kts 85°
2026-05-04 12:56 41.72982 40.04859 32827 ft 481 kts 85°
2026-05-04 12:56 41.74012 40.13719 32830 ft 481 kts 85°
2026-05-04 12:57 41.75035 40.22584 32832 ft 481 kts 85°
2026-05-04 12:57 41.76053 40.31456 32834 ft 481 kts 85°
2026-05-04 12:58 41.77064 40.40338 32837 ft 482 kts 86°
2026-05-04 12:58 41.78067 40.49212 32839 ft 482 kts 86°
2026-05-04 12:59 41.79059 40.58043 32846 ft 482 kts 86°
2026-05-04 12:59 41.79802 40.66953 32854 ft 478 kts 93°
2026-05-04 13:00 41.79490 40.75803 32855 ft 474 kts 99°
2026-05-04 13:00 41.79007 40.84574 32859 ft 475 kts 99°
2026-05-04 13:01 41.78539 40.93429 32859 ft 477 kts 99°
2026-05-04 13:01 41.78087 41.02303 32860 ft 478 kts 99°
2026-05-04 13:02 41.77634 41.11214 32866 ft 478 kts 99°
2026-05-04 13:02 41.77177 41.20058 32880 ft 479 kts 99°
2026-05-04 13:03 41.76785 41.27530 32890 ft 480 kts 99°
2026-05-04 13:03 41.76231 41.37897 32882 ft 481 kts 99°
2026-05-04 13:04 41.75747 41.46826 32883 ft 481 kts 99°
2026-05-04 13:04 41.75335 41.54318 32879 ft 481 kts 99°
2026-05-04 13:05 41.74841 41.63206 32882 ft 481 kts 99°
2026-05-04 13:05 41.74337 41.72146 32882 ft 482 kts 99°
2026-05-04 13:06 41.73825 41.81103 32880 ft 482 kts 99°
2026-05-04 13:06 41.73302 41.90070 32871 ft 483 kts 99°
2026-05-04 13:07 41.72776 41.99040 32872 ft 483 kts 99°
2026-05-04 13:07 41.72241 42.08025 32866 ft 485 kts 99°
2026-05-04 13:08 41.71697 42.17040 32850 ft 487 kts 100°
2026-05-04 13:08 41.71143 42.26089 32828 ft 489 kts 100°
2026-05-04 13:09 41.70584 42.35117 32831 ft 490 kts 100°
2026-05-04 13:09 41.70012 42.44224 32814 ft 490 kts 100°
2026-05-04 13:10 41.69434 42.53340 32791 ft 491 kts 100°
2026-05-04 13:10 41.68848 42.62457 32782 ft 490 kts 100°
2026-05-04 13:11 41.68259 42.71495 32779 ft 492 kts 100°
2026-05-04 13:11 41.67658 42.80622 32779 ft 493 kts 100°
2026-05-04 13:12 41.66879 42.89717 32775 ft 489 kts 105°
2026-05-04 13:12 41.65683 42.98682 32755 ft 490 kts 106°
2026-05-04 13:13 41.64460 43.07602 32756 ft 491 kts 106°
2026-05-04 13:13 41.63244 43.16591 32764 ft 491 kts 106°
2026-05-04 13:14 41.62034 43.25595 32767 ft 493 kts 106°
2026-05-04 13:14 41.60817 43.34620 32747 ft 492 kts 106°
2026-05-04 13:15 41.59599 43.43613 32790 ft 493 kts 106°
2026-05-04 13:15 41.58368 43.52608 32788 ft 495 kts 106°
2026-05-04 13:16 41.57122 43.61655 32809 ft 496 kts 106°
2026-05-04 13:16 41.55866 43.70743 32823 ft 497 kts 106°
2026-05-04 13:17 41.54602 43.79822 32823 ft 498 kts 107°
2026-05-04 13:17 41.53337 43.88853 32839 ft 498 kts 107°
2026-05-04 13:18 41.52057 43.97944 32853 ft 498 kts 107°
2026-05-04 13:18 41.50768 44.07040 32869 ft 499 kts 107°
2026-05-04 13:19 41.49466 44.16169 32889 ft 501 kts 107°
2026-05-04 13:19 41.48154 44.25312 32891 ft 502 kts 107°
2026-05-04 13:20 41.46842 44.34409 32895 ft 504 kts 107°
2026-05-04 13:20 41.45507 44.43609 32897 ft 505 kts 107°
2026-05-04 13:21 41.44163 44.52824 32897 ft 506 kts 107°
2026-05-04 13:21 41.42809 44.62042 32888 ft 507 kts 107°
2026-05-04 13:22 41.41444 44.71286 32886 ft 508 kts 107°
2026-05-04 13:22 41.40078 44.80482 32883 ft 509 kts 107°
2026-05-04 13:23 41.38694 44.89749 32884 ft 511 kts 107°
2026-05-04 13:23 41.37299 44.99035 32886 ft 512 kts 107°
2026-05-04 13:24 41.35853 45.08334 32876 ft 511 kts 110°
2026-05-04 13:24 41.33710 45.17232 32866 ft 506 kts 115°
2026-05-04 13:25 41.30207 45.30525 32861 ft 508 kts 115°
2026-05-04 13:25 41.27902 45.39434 32869 ft 509 kts 115°
2026-05-04 13:26 41.25619 45.48285 32840 ft 509 kts 115°
2026-05-04 13:26 41.23313 45.57184 32853 ft 509 kts 115°
2026-05-04 13:27 41.20999 45.66071 32856 ft 508 kts 115°
2026-05-04 13:27 41.18659 45.74933 32849 ft 508 kts 115°
2026-05-04 13:28 41.16310 45.83766 32846 ft 507 kts 115°
2026-05-04 13:28 41.13956 45.92597 32845 ft 507 kts 115°
2026-05-04 13:29 41.11615 46.01361 32842 ft 507 kts 115°
2026-05-04 13:29 41.09249 46.10191 32854 ft 508 kts 115°
2026-05-04 13:30 41.06873 46.19026 32850 ft 508 kts 115°
2026-05-04 13:30 41.04503 46.27810 32855 ft 509 kts 115°
2026-05-04 13:31 41.02124 46.36669 32854 ft 510 kts 115°
2026-05-04 13:31 40.99764 46.45542 32853 ft 511 kts 115°
2026-05-04 13:32 40.97392 46.54420 32850 ft 510 kts 115°
2026-05-04 13:32 40.95016 46.63264 32852 ft 510 kts 115°
2026-05-04 13:33 40.92648 46.72048 32854 ft 509 kts 115°
2026-05-04 13:33 40.90396 46.80941 32855 ft 512 kts 109°
2026-05-04 13:34 40.89196 46.90276 32858 ft 518 kts 99°
2026-05-04 13:34 40.88578 46.99795 32857 ft 519 kts 99°
2026-05-04 13:35 40.87596 47.14049 32855 ft 519 kts 100°
2026-05-04 13:36 40.86894 47.23490 32854 ft 519 kts 100°
2026-05-04 13:36 40.86178 47.32988 32854 ft 519 kts 100°
2026-05-04 13:37 40.85458 47.42490 32855 ft 519 kts 100°
2026-05-04 13:37 40.84732 47.52007 32848 ft 520 kts 100°
2026-05-04 13:38 40.84111 47.61507 32853 ft 522 kts 98°
2026-05-04 13:38 40.83548 47.71071 32851 ft 522 kts 98°
2026-05-04 13:39 40.82968 47.80658 32855 ft 523 kts 99°
2026-05-04 13:39 40.82367 47.90179 32860 ft 524 kts 99°
2026-05-04 13:40 40.81747 47.99772 32843 ft 524 kts 99°
2026-05-04 13:40 40.81119 48.09376 32842 ft 524 kts 99°
2026-05-04 13:41 40.80484 48.18967 32836 ft 523 kts 99°
2026-05-04 13:41 40.79848 48.28473 32833 ft 523 kts 99°
2026-05-04 13:42 40.78872 48.42831 32823 ft 522 kts 99°
2026-05-04 13:42 40.78214 48.52374 32815 ft 522 kts 99°
2026-05-04 13:43 40.77548 48.61899 32805 ft 521 kts 99°
2026-05-04 13:43 40.76876 48.71403 32815 ft 520 kts 99°
2026-05-04 13:44 40.76202 48.80835 32820 ft 519 kts 99°
2026-05-04 13:44 40.75514 48.90325 32813 ft 520 kts 99°
2026-05-04 13:45 40.74818 48.99828 32832 ft 521 kts 99°
2026-05-04 13:45 40.74113 49.09350 32836 ft 521 kts 99°
2026-05-04 13:46 40.73406 49.18819 32837 ft 522 kts 99°
2026-05-04 13:46 40.72629 49.28355 32842 ft 522 kts 102°
2026-05-04 13:47 40.71465 49.37806 32826 ft 521 kts 103°
2026-05-04 13:47 40.70294 49.47259 32841 ft 522 kts 102°
2026-05-04 13:48 40.69186 49.56662 32839 ft 523 kts 103°
2026-05-04 13:48 40.68038 49.66134 32840 ft 524 kts 103°
2026-05-04 13:49 40.66875 49.75618 32834 ft 525 kts 103°
2026-05-04 13:49 40.65903 49.83525 32835 ft 526 kts 103°
2026-05-04 13:50 40.64725 49.93052 32835 ft 526 kts 103°
2026-05-04 13:50 40.63541 50.02575 32831 ft 527 kts 103°
2026-05-04 13:51 40.62354 50.12052 32828 ft 528 kts 103°
2026-05-04 13:51 40.61150 50.21589 32831 ft 528 kts 103°
2026-05-04 13:52 40.59333 50.35875 32827 ft 529 kts 103°
2026-05-04 13:53 40.58109 50.45409 32833 ft 529 kts 103°
2026-05-04 13:53 40.56875 50.54962 32834 ft 529 kts 103°
2026-05-04 13:54 40.55015 50.69244 32836 ft 530 kts 103°
2026-05-04 13:55 40.53128 50.83588 32842 ft 531 kts 103°
2026-05-04 13:55 40.51402 50.97997 32851 ft 533 kts 100°
2026-05-04 13:56 40.50565 51.07623 32854 ft 533 kts 99°
2026-05-04 13:57 40.49282 51.22172 32850 ft 534 kts 100°
2026-05-04 13:58 40.47484 51.41543 32858 ft 534 kts 100°
2026-05-04 13:58 40.45705 51.55944 32856 ft 531 kts 107°
2026-05-04 13:59 40.43936 51.65301 32851 ft 531 kts 108°
2026-05-04 14:00 40.41259 51.79461 32849 ft 532 kts 107°
2026-05-04 14:00 40.38638 51.93581 32846 ft 533 kts 107°
2026-05-04 14:01 40.36875 52.03037 32848 ft 534 kts 107°
2026-05-04 14:02 40.34202 52.17255 32837 ft 535 kts 107°
2026-05-04 14:02 40.32410 52.26728 32848 ft 535 kts 107°
2026-05-04 14:03 40.30623 52.36132 32854 ft 535 kts 107°
2026-05-04 14:03 40.28817 52.45595 32842 ft 535 kts 107°
2026-05-04 14:04 40.25371 52.59407 32853 ft 527 kts 120°
2026-05-04 14:04 40.21736 52.67653 32847 ft 520 kts 130°
2026-05-04 14:05 40.15524 52.79250 32835 ft 521 kts 130°
2026-05-04 14:06 40.11404 52.87054 32834 ft 522 kts 129°
2026-05-04 14:06 40.07281 52.94895 32828 ft 523 kts 130°
2026-05-04 14:07 40.03513 53.03088 32839 ft 530 kts 120°
2026-05-04 14:07 40.00774 53.12031 32839 ft 535 kts 114°
2026-05-04 14:08 39.98253 53.21181 32827 ft 536 kts 113°
2026-05-04 14:08 39.95699 53.30318 32827 ft 536 kts 114°
2026-05-04 14:09 39.91793 53.43995 32825 ft 536 kts 114°
2026-05-04 14:10 39.87871 53.57609 32815 ft 536 kts 114°
2026-05-04 14:10 39.85243 53.66702 32816 ft 536 kts 114°
2026-05-04 14:11 39.82605 53.75804 32803 ft 537 kts 114°
2026-05-04 14:11 39.78639 53.89430 32801 ft 537 kts 114°
2026-05-04 14:12 39.75995 53.98475 32803 ft 538 kts 114°
2026-05-04 14:13 39.71990 54.12116 32803 ft 539 kts 114°
2026-05-04 14:13 39.69308 54.21211 32812 ft 539 kts 114°
2026-05-04 14:14 39.66633 54.30252 32813 ft 539 kts 114°
2026-05-04 14:14 39.62580 54.43892 32796 ft 540 kts 114°
2026-05-04 14:15 39.57169 54.62000 32836 ft 537 kts 114°
2026-05-04 14:16 39.53091 54.75559 32802 ft 539 kts 114°
2026-05-04 14:17 39.48982 54.89156 32815 ft 541 kts 114°
2026-05-04 14:18 39.44845 55.02779 32808 ft 542 kts 114°
2026-05-04 14:19 39.39311 55.20898 32804 ft 543 kts 114°
2026-05-04 14:19 39.36526 55.29971 32805 ft 543 kts 114°
2026-05-04 14:20 39.33734 55.39035 32810 ft 542 kts 114°
2026-05-04 14:20 39.30950 55.48048 32813 ft 542 kts 114°
2026-05-04 14:21 39.26543 55.61433 32820 ft 540 kts 119°
2026-05-04 14:21 39.23189 55.70095 32816 ft 540 kts 120°
2026-05-04 14:22 39.19814 55.78759 32817 ft 540 kts 119°
2026-05-04 14:22 39.16458 55.87453 32818 ft 541 kts 119°
2026-05-04 14:23 39.11454 56.00433 32816 ft 541 kts 119°
2026-05-04 14:24 39.08097 56.09100 32814 ft 541 kts 119°
2026-05-04 14:24 39.04726 56.17775 32815 ft 541 kts 119°
2026-05-04 14:25 39.01354 56.26430 32821 ft 541 kts 119°
2026-05-04 14:25 38.97163 56.39875 32825 ft 543 kts 110°
2026-05-04 14:26 38.94720 56.49052 32814 ft 543 kts 110°
2026-05-04 14:26 38.92237 56.58220 32819 ft 543 kts 111°
2026-05-04 14:27 38.89719 56.67355 32819 ft 542 kts 111°
2026-05-04 14:27 38.87188 56.76470 32824 ft 542 kts 111°
2026-05-04 14:28 38.84652 56.85584 32823 ft 542 kts 111°
2026-05-04 14:28 38.82128 56.94629 32822 ft 542 kts 111°
2026-05-04 14:29 38.77019 57.12851 32821 ft 542 kts 111°
2026-05-04 14:30 38.74472 57.21888 32823 ft 542 kts 111°
2026-05-04 14:31 38.70614 57.35517 32824 ft 542 kts 111°
2026-05-04 14:32 38.65451 57.53647 32822 ft 542 kts 111°
2026-05-04 14:32 38.62862 57.62698 32823 ft 542 kts 111°
2026-05-04 14:33 38.60069 57.71576 32822 ft 540 kts 115°
2026-05-04 14:33 38.56955 57.80358 32816 ft 540 kts 116°
2026-05-04 14:34 38.53859 57.89048 32820 ft 541 kts 116°
2026-05-04 14:34 38.50764 57.97817 32820 ft 541 kts 115°
2026-05-04 14:35 38.47669 58.06592 32820 ft 541 kts 115°
2026-05-04 14:35 38.44587 58.15299 32820 ft 541 kts 115°
2026-05-04 14:36 38.41479 58.24047 32823 ft 542 kts 115°
2026-05-04 14:36 38.38899 58.33077 32822 ft 542 kts 104°
2026-05-04 14:37 38.37094 58.42416 32826 ft 542 kts 103°
2026-05-04 14:37 38.35298 58.51768 32824 ft 542 kts 104°
2026-05-04 14:38 38.33464 58.61045 32827 ft 542 kts 104°
2026-05-04 14:38 38.31904 58.68795 32828 ft 542 kts 104°
2026-05-04 14:39 38.30022 58.78091 32825 ft 542 kts 104°
2026-05-04 14:39 38.28135 58.87389 32831 ft 542 kts 104°
2026-05-04 14:40 38.25302 59.01286 32836 ft 542 kts 104°
2026-05-04 14:40 38.23400 59.10570 32825 ft 542 kts 104°
2026-05-04 14:41 38.21501 59.19794 32835 ft 541 kts 104°
2026-05-04 14:42 38.17662 59.38321 32838 ft 541 kts 104°
2026-05-04 14:42 38.15733 59.47576 32842 ft 541 kts 104°
2026-05-04 14:43 38.13807 59.56770 32841 ft 541 kts 104°
2026-05-04 14:43 38.11863 59.66016 32848 ft 541 kts 104°
2026-05-04 14:44 38.09909 59.75267 32847 ft 541 kts 105°
2026-05-04 14:44 38.07965 59.84434 32852 ft 541 kts 105°
2026-05-04 14:45 38.06000 59.93658 32851 ft 540 kts 105°
2026-05-04 14:45 38.04030 60.02872 32856 ft 540 kts 105°
2026-05-04 14:46 38.02068 60.12010 32860 ft 540 kts 105°
2026-05-04 14:46 38.00084 60.21209 32863 ft 540 kts 105°
2026-05-04 14:47 37.98084 60.30385 32862 ft 540 kts 105°
2026-05-04 14:47 37.96085 60.39515 32866 ft 539 kts 105°
2026-05-04 14:48 37.94074 60.48671 32866 ft 539 kts 105°
2026-05-04 14:48 37.92060 60.57810 32874 ft 539 kts 105°
2026-05-04 14:49 37.90035 60.66961 32879 ft 539 kts 105°
2026-05-04 14:49 37.88016 60.76048 32881 ft 538 kts 105°
2026-05-04 14:50 37.85980 60.85177 32880 ft 538 kts 105°
2026-05-04 14:50 37.83935 60.94305 32880 ft 538 kts 105°
2026-05-04 14:51 37.81902 61.03347 32885 ft 537 kts 105°
2026-05-04 14:51 37.79849 61.12442 32888 ft 537 kts 105°
2026-05-04 14:52 37.77790 61.21528 32891 ft 537 kts 105°
2026-05-04 14:52 37.75727 61.30592 32890 ft 536 kts 105°
2026-05-04 14:53 37.73656 61.39662 32898 ft 536 kts 105°
2026-05-04 14:53 37.71593 61.48657 32904 ft 535 kts 105°
2026-05-04 14:54 37.69515 61.57686 32908 ft 535 kts 105°
2026-05-04 14:54 37.67427 61.66723 32911 ft 535 kts 105°
2026-05-04 14:55 37.65338 61.75735 32912 ft 534 kts 105°
2026-05-04 14:55 37.63014 61.84608 32900 ft 532 kts 118°
2026-05-04 14:56 37.61000 61.88424 32919 ft 529 kts 132°
2026-05-04 14:56 37.58371 61.91654 32917 ft 525 kts 145°
2026-05-04 14:56 37.55287 61.94069 32905 ft 518 kts 157°
2026-05-04 14:56 37.52060 61.96088 32921 ft 519 kts 157°
2026-05-04 14:57 37.45565 62.00182 32918 ft 524 kts 156°
2026-05-04 14:57 37.39053 62.04395 32915 ft 527 kts 156°
2026-05-04 14:58 37.32576 62.08643 32911 ft 529 kts 155°
2026-05-04 14:58 37.26037 62.12934 32912 ft 530 kts 155°
2026-05-04 14:59 37.19483 62.17219 32909 ft 530 kts 156°
2026-05-04 15:00 37.09675 62.23608 32911 ft 528 kts 156°
2026-05-04 15:00 37.03157 62.27842 32905 ft 527 kts 156°
2026-05-04 15:01 36.93427 62.34147 32918 ft 527 kts 156°
2026-05-04 15:01 36.86910 62.38361 32921 ft 527 kts 156°
2026-05-04 15:02 36.80389 62.42568 32913 ft 527 kts 156°
2026-05-04 15:02 36.73869 62.46767 32920 ft 528 kts 156°
2026-05-04 15:03 36.67316 62.50979 32925 ft 529 kts 156°
2026-05-04 15:03 36.60763 62.55183 32920 ft 530 kts 156°
2026-05-04 15:04 36.54199 62.59386 32925 ft 531 kts 156°
2026-05-04 15:04 36.47665 62.63563 32927 ft 531 kts 156°
2026-05-04 15:05 36.41090 62.67758 32924 ft 532 kts 156°
2026-05-04 15:05 36.34497 62.71955 32922 ft 532 kts 156°
2026-05-04 15:06 36.27914 62.76139 32927 ft 531 kts 156°
2026-05-04 15:07 36.18041 62.82398 32924 ft 531 kts 156°
2026-05-04 15:07 36.11451 62.86566 32926 ft 531 kts 156°
2026-05-04 15:08 36.04868 62.90721 32933 ft 531 kts 156°
2026-05-04 15:08 35.98317 62.94849 32927 ft 531 kts 156°
2026-05-04 15:09 35.91724 62.98995 32922 ft 532 kts 156°
2026-05-04 15:09 35.85131 63.03134 32926 ft 532 kts 156°
2026-05-04 15:10 35.75230 63.09335 32929 ft 532 kts 156°
2026-05-04 15:11 35.65318 63.15528 32932 ft 532 kts 156°
2026-05-04 15:11 35.59076 63.20322 32936 ft 536 kts 142°
2026-05-04 15:12 35.53779 63.26800 32933 ft 539 kts 128°
2026-05-04 15:12 35.49270 63.34158 32956 ft 539 kts 127°
2026-05-04 15:13 35.44764 63.41525 32957 ft 540 kts 128°
2026-05-04 15:13 35.40182 63.48850 32964 ft 541 kts 128°
2026-05-04 15:14 35.35575 63.56154 32979 ft 541 kts 128°
2026-05-04 15:14 35.30995 63.63421 32983 ft 541 kts 128°
2026-05-04 15:15 35.26395 63.70714 32986 ft 540 kts 128°
2026-05-04 15:15 35.21807 63.77991 32994 ft 540 kts 128°
2026-05-04 15:16 35.14924 63.88886 33007 ft 539 kts 128°
2026-05-04 15:17 35.08022 63.99772 33014 ft 539 kts 128°
2026-05-04 15:17 35.01155 64.10572 33032 ft 538 kts 128°
2026-05-04 15:18 34.96549 64.17796 33023 ft 539 kts 128°
2026-05-04 15:19 34.89621 64.28634 33043 ft 539 kts 128°
2026-05-04 15:19 34.82715 64.39406 33058 ft 540 kts 128°
2026-05-04 15:20 34.78078 64.46620 33049 ft 541 kts 128°
2026-05-04 15:20 34.73430 64.53836 33063 ft 541 kts 128°
2026-05-04 15:21 34.68780 64.61043 33064 ft 541 kts 128°
2026-05-04 15:22 34.61802 64.71827 33047 ft 541 kts 128°
2026-05-04 15:22 34.54850 64.82541 33044 ft 541 kts 128°
2026-05-04 15:23 34.50192 64.89703 33032 ft 541 kts 128°
2026-05-04 15:23 34.45520 64.96857 33039 ft 540 kts 128°
2026-05-04 15:24 34.36955 65.09926 33021 ft 541 kts 128°
2026-05-04 15:25 34.32271 65.17058 33010 ft 541 kts 128°
2026-05-04 15:26 34.25272 65.27689 33024 ft 541 kts 128°
2026-05-04 15:26 34.18233 65.38349 33021 ft 541 kts 128°
2026-05-04 15:27 34.11169 65.49018 33011 ft 542 kts 128°
2026-05-04 15:28 34.04100 65.59663 33003 ft 540 kts 129°
2026-05-04 15:29 33.97057 65.70244 32986 ft 542 kts 129°
2026-05-04 15:30 33.80547 65.94943 32963 ft 542 kts 129°
2026-05-04 15:31 33.73429 66.05542 32919 ft 541 kts 129°
2026-05-04 15:32 33.61617 66.23057 32920 ft 541 kts 129°
2026-05-04 15:34 33.49770 66.40545 32894 ft 542 kts 129°
2026-05-04 15:34 33.42634 66.51022 32922 ft 540 kts 129°
2026-05-04 15:35 33.35486 66.61441 32957 ft 539 kts 129°
2026-05-04 15:36 33.28358 66.71811 32954 ft 540 kts 129°
2026-05-04 15:36 33.23582 66.78746 32966 ft 540 kts 129°
2026-05-04 15:37 33.18806 66.85665 32972 ft 540 kts 129°
2026-05-04 15:37 33.14028 66.92579 32985 ft 540 kts 129°
2026-05-04 15:38 33.09266 66.99455 32982 ft 540 kts 129°
2026-05-04 15:38 33.04473 67.06363 32965 ft 540 kts 129°
2026-05-04 15:39 32.99680 67.13256 32959 ft 540 kts 129°
2026-05-04 15:40 32.92476 67.23594 32926 ft 541 kts 129°
2026-05-04 15:40 32.87657 67.30492 32915 ft 541 kts 129°
2026-05-04 15:41 32.82867 67.37342 32891 ft 542 kts 129°
2026-05-04 15:41 32.78048 67.44218 32882 ft 540 kts 129°
2026-05-04 15:42 32.73145 67.50978 32888 ft 539 kts 131°
2026-05-04 15:42 32.68153 67.57613 32857 ft 539 kts 131°
2026-05-04 15:43 32.63162 67.64270 32849 ft 538 kts 131°
2026-05-04 15:43 32.58223 67.70894 32841 ft 538 kts 131°
2026-05-04 15:44 32.53261 67.77541 32847 ft 538 kts 131°
2026-05-04 15:44 32.48322 67.84195 32838 ft 537 kts 130°
2026-05-04 15:45 32.43571 67.91011 32867 ft 537 kts 129°
2026-05-04 15:45 32.38861 67.97883 32865 ft 537 kts 129°
2026-05-04 15:46 32.34119 68.04728 32862 ft 538 kts 129°
2026-05-04 15:46 32.29344 68.11558 32866 ft 539 kts 129°
2026-05-04 15:47 32.24586 68.18340 32894 ft 539 kts 129°
2026-05-04 15:47 32.19778 68.25186 32877 ft 540 kts 129°
2026-05-04 15:48 32.14995 68.31987 32880 ft 541 kts 129°
2026-05-04 15:48 32.07774 68.42235 32874 ft 542 kts 129°
2026-05-04 15:49 32.02945 68.49071 32885 ft 542 kts 129°
2026-05-04 15:49 31.98116 68.55895 32868 ft 541 kts 129°
2026-05-04 15:50 31.93327 68.62650 32881 ft 541 kts 129°
2026-05-04 15:50 31.88501 68.69447 32873 ft 540 kts 129°
2026-05-04 15:51 31.83687 68.76213 32880 ft 538 kts 129°
2026-05-04 15:51 31.78876 68.82963 32884 ft 538 kts 129°
2026-05-04 15:52 31.74068 68.89699 32887 ft 537 kts 129°
2026-05-04 15:52 31.69253 68.96433 32891 ft 536 kts 129°
2026-05-04 15:53 31.64498 69.03141 32895 ft 536 kts 128°
2026-05-04 15:53 31.59881 69.10027 32896 ft 537 kts 127°
2026-05-04 15:54 31.55271 69.16952 32897 ft 538 kts 128°
2026-05-04 15:54 31.50620 69.23855 32876 ft 540 kts 128°
2026-05-04 15:55 31.45972 69.30718 32861 ft 541 kts 128°
2026-05-04 15:55 31.41290 69.37621 32876 ft 541 kts 128°
2026-05-04 15:56 31.36114 69.43940 32872 ft 538 kts 146°
2026-05-04 15:56 31.29446 69.47755 32875 ft 532 kts 168°
2026-05-04 15:57 31.22283 69.49478 32871 ft 529 kts 172°
2026-05-04 15:57 31.15046 69.51140 32863 ft 530 kts 171°
2026-05-04 15:58 31.07810 69.52893 32871 ft 530 kts 171°
2026-05-04 15:58 31.00631 69.54680 32879 ft 530 kts 171°
2026-05-04 15:59 30.93417 69.56478 32873 ft 530 kts 171°
2026-05-04 15:59 30.86203 69.58266 32867 ft 529 kts 171°
2026-05-04 16:00 30.79004 69.60044 32864 ft 528 kts 171°
2026-05-04 16:00 30.71826 69.61814 32865 ft 526 kts 171°
2026-05-04 16:01 30.64660 69.63579 32852 ft 525 kts 171°
2026-05-04 16:01 30.57544 69.65328 32857 ft 524 kts 171°
2026-05-04 16:02 30.50393 69.67084 32855 ft 525 kts 171°
2026-05-04 16:03 30.39649 69.69717 32868 ft 527 kts 171°
2026-05-04 16:03 30.32507 69.71465 32856 ft 528 kts 171°
2026-05-04 16:04 30.25314 69.73222 32855 ft 528 kts 171°
2026-05-04 16:04 30.14550 69.76244 32850 ft 530 kts 168°
2026-05-04 16:05 30.07411 69.78400 32840 ft 530 kts 168°
2026-05-04 16:06 29.96693 69.81557 32831 ft 530 kts 169°
2026-05-04 16:07 29.82414 69.85691 32808 ft 530 kts 169°
2026-05-04 16:08 29.68071 69.89840 32791 ft 531 kts 169°
2026-05-04 16:09 29.50151 69.95009 32761 ft 531 kts 169°
2026-05-04 16:10 29.35850 69.99119 32754 ft 531 kts 169°
2026-05-04 16:11 29.22684 70.02893 32739 ft 532 kts 169°
2026-05-04 16:12 29.01113 70.09054 32719 ft 532 kts 170°
2026-05-04 16:13 28.86748 70.13143 32714 ft 533 kts 170°
2026-05-04 16:14 28.72313 70.17240 32699 ft 534 kts 170°
2026-05-04 16:16 28.54307 70.22334 32691 ft 535 kts 170°
2026-05-04 16:17 28.36861 70.29281 32696 ft 545 kts 139°
2026-05-04 16:18 28.30989 70.40233 32697 ft 545 kts 113°
2026-05-04 16:18 28.29413 70.44155 32696 ft 547 kts 114°
2026-05-04 16:19 28.21182 70.63686 32687 ft 551 kts 115°
2026-05-04 16:20 28.12808 70.83135 32680 ft 548 kts 115°
2026-05-04 16:22 28.04459 71.02478 32693 ft 545 kts 116°
2026-05-04 16:23 27.94472 71.25490 32696 ft 543 kts 116°
2026-05-04 16:25 27.84389 71.48346 32697 ft 542 kts 118°
2026-05-04 16:26 27.71961 71.74630 32701 ft 541 kts 118°
2026-05-04 16:28 27.60234 71.89998 32720 ft 523 kts 164°
2026-05-04 16:28 27.49596 71.91668 32716 ft 518 kts 180°
2026-05-04 16:29 27.35288 71.93192 32711 ft 512 kts 179°
2026-05-04 16:31 27.17556 71.95250 32732 ft 513 kts 179°
2026-05-04 16:32 26.96241 71.97699 32732 ft 514 kts 179°
2026-05-04 16:33 26.82009 71.99330 32734 ft 515 kts 179°
2026-05-04 16:34 26.71299 72.00554 32740 ft 515 kts 179°
2026-05-04 16:35 26.49921 72.02991 32735 ft 515 kts 179°
2026-05-04 16:36 26.39205 72.04208 32731 ft 515 kts 179°
2026-05-04 16:37 26.28543 72.05418 32722 ft 515 kts 179°
2026-05-04 16:38 26.14288 72.07031 32717 ft 514 kts 179°
2026-05-04 16:39 25.96477 72.09042 32711 ft 514 kts 179°
2026-05-04 16:40 25.82249 72.10644 32709 ft 513 kts 179°
2026-05-04 16:41 25.64510 72.12640 32708 ft 513 kts 179°
2026-05-04 16:43 25.46802 72.14671 32695 ft 512 kts 179°
2026-05-04 16:43 25.36162 72.15886 32697 ft 512 kts 179°
2026-05-04 16:45 25.14898 72.18307 32696 ft 511 kts 179°
2026-05-04 16:46 24.97235 72.20523 32708 ft 515 kts 174°
2026-05-04 16:47 24.83155 72.23715 32707 ft 516 kts 174°
2026-05-04 16:48 24.69111 72.26827 32713 ft 516 kts 173°
2026-05-04 16:49 24.55035 72.29992 32716 ft 515 kts 174°
2026-05-04 16:50 24.41055 72.33117 32715 ft 514 kts 174°
2026-05-04 16:51 24.30532 72.35464 32714 ft 513 kts 174°
2026-05-04 16:52 24.16524 72.38583 32731 ft 513 kts 174°
2026-05-04 16:53 24.06027 72.40916 32732 ft 513 kts 174°
2026-05-04 16:54 23.92051 72.44028 32728 ft 512 kts 173°
2026-05-04 16:55 23.71171 72.48680 32728 ft 510 kts 173°
2026-05-04 16:56 23.54945 72.52282 32732 ft 510 kts 174°
2026-05-04 16:57 23.44502 72.54597 32730 ft 510 kts 174°
2026-05-04 16:58 23.30613 72.57669 32741 ft 511 kts 174°
2026-05-04 17:00 23.09705 72.62035 32738 ft 504 kts 182°
2026-05-04 17:00 22.99512 72.60577 32749 ft 487 kts 202°
2026-05-04 17:01 22.93057 72.58336 32744 ft 487 kts 203°
2026-05-04 17:02 22.80127 72.53907 32742 ft 489 kts 202°
2026-05-04 17:03 22.70384 72.50648 32749 ft 489 kts 202°
2026-05-04 17:03 22.60625 72.47389 32742 ft 490 kts 202°
2026-05-04 17:04 22.47632 72.43053 32742 ft 490 kts 202°
2026-05-04 17:05 22.34579 72.38706 32743 ft 491 kts 202°
2026-05-04 17:06 22.24767 72.35444 32741 ft 492 kts 201°
2026-05-04 17:07 22.16006 72.32535 32744 ft 493 kts 201°
2026-05-04 17:07 22.08388 72.30008 32748 ft 493 kts 201°
2026-05-04 17:08 21.98556 72.26752 32745 ft 493 kts 201°
2026-05-04 17:09 21.91996 72.24581 32743 ft 493 kts 201°
2026-05-04 17:09 21.85440 72.22414 32750 ft 493 kts 201°
2026-05-04 17:10 21.68392 72.20549 32744 ft 513 kts 171°
2026-05-04 17:11 21.61443 72.22421 32747 ft 515 kts 169°
2026-05-04 17:12 21.51058 72.25258 32759 ft 516 kts 170°
2026-05-04 17:13 21.33593 72.29790 32778 ft 516 kts 171°
2026-05-04 17:14 21.19674 72.33393 32790 ft 516 kts 170°
2026-05-04 17:15 21.09211 72.36099 32798 ft 515 kts 170°
2026-05-04 17:16 20.95285 72.39694 32806 ft 515 kts 170°
2026-05-04 17:17 20.81356 72.43285 32806 ft 515 kts 170°
2026-05-04 17:17 20.70849 72.44854 32811 ft 503 kts 189°
2026-05-04 17:18 20.67396 72.44300 32817 ft 498 kts 197°
2026-05-04 17:19 20.54591 72.39169 32817 ft 494 kts 205°
2026-05-04 17:20 20.41695 72.33853 32818 ft 497 kts 205°
2026-05-04 17:20 20.35185 72.31206 32010 ft 508 kts 204°
2026-05-04 17:20 20.31878 72.29862 31182 ft 508 kts 204°
2026-05-04 17:21 20.25272 72.27181 29582 ft 503 kts 204°
2026-05-04 17:21 20.18835 72.24571 28188 ft 492 kts 204°
2026-05-04 17:22 20.15657 72.23282 27556 ft 486 kts 204°
2026-05-04 17:22 20.12511 72.22005 26954 ft 481 kts 204°
2026-05-04 17:23 20.03234 72.18243 25137 ft 469 kts 204°
2026-05-04 17:23 20.00228 72.17024 24539 ft 466 kts 203°
2026-05-04 17:23 19.94215 72.14589 23591 ft 454 kts 203°
2026-05-04 17:24 19.91303 72.13412 23356 ft 442 kts 203°
2026-05-04 17:24 19.83007 72.10060 22781 ft 408 kts 203°
2026-05-04 17:25 19.80352 72.09174 22587 ft 397 kts 190°
2026-05-04 17:25 19.75041 72.10115 22099 ft 391 kts 155°
2026-05-04 17:26 19.70792 72.13567 21325 ft 386 kts 139°
2026-05-04 17:26 19.64882 72.19341 20147 ft 382 kts 138°
2026-05-04 17:27 19.60963 72.23114 19445 ft 378 kts 139°
2026-05-04 17:27 19.57059 72.26832 18830 ft 372 kts 139°
2026-05-04 17:28 19.53243 72.30451 17846 ft 375 kts 139°
2026-05-04 17:29 19.47552 72.35843 16716 ft 364 kts 139°
2026-05-04 17:29 19.41970 72.41125 15654 ft 352 kts 139°
2026-05-04 17:30 19.36617 72.46187 14384 ft 339 kts 139°
2026-05-04 17:31 19.33122 72.49489 13653 ft 335 kts 139°
2026-05-04 17:31 19.27965 72.54360 12534 ft 326 kts 139°
2026-05-04 17:32 19.24635 72.57502 12063 ft 311 kts 139°
2026-05-04 17:33 19.21529 72.62727 11768 ft 274 kts 92°
2026-05-04 17:33 19.21488 72.64774 11777 ft 286 kts 90°
2026-05-04 17:34 19.21494 72.71318 11631 ft 294 kts 89°
2026-05-04 17:34 19.21492 72.73461 11580 ft 289 kts 90°
2026-05-04 17:35 19.21468 72.79775 11476 ft 285 kts 90°
2026-05-04 17:35 19.21444 72.83942 11399 ft 286 kts 90°
2026-05-04 17:35 19.21431 72.86056 11358 ft 288 kts 90°
2026-05-04 17:36 19.21417 72.88184 11321 ft 290 kts 90°
2026-05-04 17:36 19.21402 72.90318 11271 ft 290 kts 90°
2026-05-04 17:36 19.21387 72.92458 11220 ft 290 kts 90°
2026-05-04 17:36 19.21372 72.94593 11172 ft 289 kts 90°
2026-05-04 17:37 19.21356 72.96717 11143 ft 287 kts 90°
2026-05-04 17:37 19.21341 72.98830 11096 ft 287 kts 90°
2026-05-04 17:37 19.21326 73.00915 11059 ft 286 kts 90°
2026-05-04 17:37 19.21310 73.03020 11015 ft 286 kts 90°
2026-05-04 17:38 19.21293 73.05125 10982 ft 285 kts 90°
2026-05-04 17:38 19.21229 73.07215 10911 ft 282 kts 100°
2026-05-04 17:38 19.20493 73.09109 10877 ft 279 kts 129°
2026-05-04 17:38 19.19036 73.10431 10762 ft 280 kts 153°
2026-05-04 17:39 19.15169 73.10568 9746 ft 284 kts 207°
2026-05-04 17:39 19.13498 73.09579 9655 ft 268 kts 212°
2026-05-04 17:39 19.11928 73.08592 9537 ft 255 kts 212°
2026-05-04 17:40 19.10441 73.07661 9417 ft 242 kts 213°
2026-05-04 17:40 19.09273 73.06489 9085 ft 228 kts 247°
2026-05-04 17:40 19.09021 73.04894 8642 ft 219 kts 271°
2026-05-04 17:40 19.09032 73.03273 8182 ft 221 kts 270°
2026-05-04 17:41 19.09031 73.01646 7744 ft 222 kts 270°
2026-05-04 17:41 19.09024 73.00014 7369 ft 221 kts 270°
2026-05-04 17:41 19.09014 72.98420 7020 ft 218 kts 270°
2026-05-04 17:41 19.09000 72.96829 6686 ft 215 kts 269°
2026-05-04 17:42 19.08984 72.95255 6348 ft 213 kts 269°
2026-05-04 17:42 19.08966 72.93702 5976 ft 211 kts 269°
2026-05-04 17:42 19.08946 72.92158 5584 ft 210 kts 269°
2026-05-04 17:42 19.08925 72.90620 5186 ft 209 kts 269°
2026-05-04 17:43 19.08904 72.89085 4824 ft 209 kts 269°
2026-05-04 17:43 19.08883 72.87554 4448 ft 207 kts 269°
2026-05-04 17:43 19.08877 72.85992 3828 ft 220 kts 269°
2026-05-04 17:43 19.08874 72.84312 3320 ft 234 kts 269°
2026-05-04 17:44 19.08870 72.82547 3145 ft 245 kts 269°
2026-05-04 17:44 19.08867 72.80762 2978 ft 246 kts 268°
2026-05-04 17:44 19.09065 72.78943 2874 ft 256 kts 290°
2026-05-04 17:44 19.10090 72.77387 2852 ft 263 kts 318°
2026-05-04 17:45 19.11718 72.76541 2846 ft 263 kts 347°
2026-05-04 17:45 19.13529 72.76624 2856 ft 263 kts 17°
2026-05-04 17:45 19.15089 72.77613 2863 ft 265 kts 47°
2026-05-04 17:45 19.16031 72.79276 2849 ft 266 kts 76°
2026-05-04 17:46 19.16320 72.81191 2874 ft 265 kts 87°
2026-05-04 17:46 19.16389 72.82490 2857 ft 268 kts 89°
2026-05-04 17:46 19.16453 72.84466 2867 ft 269 kts 89°
2026-05-04 17:46 19.16509 72.86433 2860 ft 266 kts 90°
2026-05-04 17:47 19.16561 72.88379 2851 ft 263 kts 90°
2026-05-04 17:47 19.16608 72.90312 2862 ft 263 kts 90°
2026-05-04 17:47 19.16653 72.92242 2862 ft 262 kts 90°
2026-05-04 17:47 19.16703 72.94168 2856 ft 262 kts 90°
2026-05-04 17:48 19.16755 72.96097 2862 ft 263 kts 90°
2026-05-04 17:48 19.16796 72.98035 2858 ft 263 kts 91°
2026-05-04 17:48 19.16829 72.99968 2850 ft 263 kts 91°
2026-05-04 17:48 19.16861 73.01908 2850 ft 264 kts 91°
2026-05-04 17:49 19.16893 73.03851 2866 ft 264 kts 91°
2026-05-04 17:49 19.16923 73.05770 2849 ft 264 kts 91°
2026-05-04 17:49 19.16953 73.07714 2860 ft 264 kts 91°
2026-05-04 17:49 19.16983 73.09658 2848 ft 264 kts 91°
2026-05-04 17:50 19.17016 73.11601 2848 ft 264 kts 91°
2026-05-04 17:50 19.16950 73.13518 2878 ft 256 kts 104°
2026-05-04 17:50 19.16165 73.15192 2863 ft 257 kts 134°
2026-05-04 17:50 19.14714 73.16231 2857 ft 249 kts 163°
2026-05-04 17:51 19.13077 73.16359 2844 ft 225 kts 192°
2026-05-04 17:51 19.11609 73.15962 2832 ft 211 kts 198°
2026-05-04 17:51 19.10253 73.15459 2850 ft 206 kts 211°
2026-05-04 17:51 19.09354 73.14383 2876 ft 194 kts 249°
2026-05-04 17:52 19.09209 73.13023 2859 ft 183 kts 268°
2026-05-04 17:52 19.09208 73.11719 2878 ft 172 kts 266°
2026-05-04 17:52 19.09195 73.10481 2852 ft 165 kts 266°
2026-05-04 17:52 19.09180 73.09256 2864 ft 168 kts 266°
2026-05-04 17:53 19.09164 73.08010 2870 ft 170 kts 266°
2026-05-04 17:53 19.09147 73.06747 2863 ft 172 kts 266°
2026-05-04 17:53 19.09130 73.05493 2850 ft 168 kts 266°
2026-05-04 17:53 19.09114 73.04267 2845 ft 165 kts 266°
2026-05-04 17:54 19.09094 73.03018 2743 ft 175 kts 266°
2026-05-04 17:54 19.09079 73.01757 2530 ft 168 kts 266°
2026-05-04 17:54 19.09064 73.00566 2327 ft 155 kts 266°
2026-05-04 17:54 19.09048 72.99449 2136 ft 151 kts 266°
2026-05-04 17:55 19.09032 72.98352 1968 ft 152 kts 266°
2026-05-04 17:55 19.09016 72.97233 1764 ft 152 kts 265°
2026-05-04 17:55 19.09000 72.96119 1565 ft 152 kts 267°
2026-05-04 17:55 19.08985 72.94995 1371 ft 152 kts 267°
2026-05-04 17:56 19.08970 72.93881 1175 ft 151 kts 266°
2026-05-04 17:56 19.08955 72.92763 984 ft 153 kts 266°
2026-05-04 17:56 19.08937 72.91627 819 ft 158 kts 267°
2026-05-04 17:56 19.08920 72.90464 592 ft 160 kts 267°
2026-05-04 17:57 19.08915 72.89278 409 ft 163 kts 265°
2026-05-04 17:57 19.08891 72.88063 178 ft 164 kts 267°
2026-05-04 17:57 19.08881 72.86923 64 ft 141 kts 265°
2026-05-04 17:57 19.08859 72.86017 51 ft 100 kts 269°
2026-05-04 17:58 19.08854 72.85573 48 ft 43 kts 269°
2026-05-04 17:58 19.08891 72.85362 53 ft 23 kts 289°
2026-05-04 17:58 19.08900 72.85340 48 ft 0 kts 296°
2026-05-04 17:58 19.08901 72.85337 48 ft 0 kts 296°
2026-05-04 17:59 19.08915 72.85309 49 ft 10 kts 298°
2026-05-04 17:59 19.08958 72.85248 50 ft 11 kts 331°
2026-05-04 17:59 19.09023 72.85356 49 ft 11 kts 89°
2026-05-04 18:00 19.09024 72.85440 49 ft 15 kts 89°
2026-05-04 18:00 19.09027 72.85607 53 ft 25 kts 89°
2026-05-04 18:00 19.09029 72.85788 53 ft 25 kts 89°
2026-05-04 18:00 19.09031 72.85902 53 ft 19 kts 89°
2026-05-04 18:01 19.09033 72.86047 53 ft 20 kts 89°
2026-05-04 18:01 19.09035 72.86192 53 ft 20 kts 89°
2026-05-04 18:01 19.09044 72.86306 46 ft 12 kts 68°
2026-05-04 18:02 19.09152 72.86446 52 ft 12 kts 49°
2026-05-04 18:02 19.09209 72.86515 49 ft 12 kts 49°
2026-05-04 18:02 19.09266 72.86583 48 ft 12 kts 49°
2026-05-04 18:02 19.09323 72.86652 50 ft 12 kts 49°
2026-05-04 18:03 19.09380 72.86720 52 ft 12 kts 49°
2026-05-04 18:03 19.09437 72.86782 48 ft 10 kts 28°
2026-05-04 18:03 19.09489 72.86770 47 ft 5 kts 319°
2026-05-04 18:03 19.09513 72.86748 49 ft 0 kts 320°